TimeCST,TemperatureF,Dew PointF,Humidity,Sea Level PressureIn,VisibilityMPH,Wind Direction,Wind SpeedMPH,Gust SpeedMPH,PrecipitationIn,Events,Conditions,WindDirDegrees,DateUTC
12:14 AM,4.1,1.0,87,29.75,2.0,WNW,20.7,25.3,N/A,,Overcast,300,2013-12-05 06:14:00
12:34 AM,4.5,1.0,86,29.76,2.0,WNW,18.4,27.6,N/A,,Overcast,300,2013-12-05 06:34:00
12:54 AM,4.1,0.9,86,29.78,3.0,WNW,18.4,25.3,N/A,,Overcast,300,2013-12-05 06:54:00
1:14 AM,4.1,0.5,85,29.79,3.0,WNW,18.4,24.2,N/A,,Overcast,300,2013-12-05 07:14:00
1:34 AM,3.7,0.1,85,29.81,3.0,WNW,17.3,21.9,N/A,,Mostly Cloudy,300,2013-12-05 07:34:00
1:54 AM,3.7,0.5,86,29.81,3.0,WNW,15.0,19.6,N/A,,Mostly Cloudy,300,2013-12-05 07:54:00
2:14 AM,3.7,0.5,86,29.82,2.5,WNW,18.4,23.0,N/A,,Overcast,300,2013-12-05 08:14:00
2:34 AM,3.7,0.5,86,29.84,2.5,WNW,16.1,-,N/A,,Overcast,290,2013-12-05 08:34:00
2:54 AM,3.2,-0.4,85,29.84,4.0,WNW,16.1,23.0,N/A,,Overcast,290,2013-12-05 08:54:00
3:14 AM,3.2,-0.4,85,29.85,4.0,WNW,17.3,-,N/A,,Overcast,290,2013-12-05 09:14:00
3:34 AM,2.7,-0.9,85,29.86,2.5,WNW,20.7,26.5,N/A,,Overcast,290,2013-12-05 09:34:00
3:54 AM,1.4,-2.2,85,29.87,4.0,WNW,23.0,29.9,N/A,,Scattered Clouds,290,2013-12-05 09:54:00
4:14 AM,0.7,-2.9,85,29.88,4.0,WNW,20.7,26.5,N/A,,Clear,290,2013-12-05 10:14:00
4:34 AM,0.1,-3.6,84,29.89,3.0,WNW,19.6,-,N/A,,Clear,290,2013-12-05 10:34:00
4:54 AM,-0.6,-4.2,85,29.91,4.0,WNW,20.7,26.5,N/A,,Scattered Clouds,290,2013-12-05 10:54:00
5:14 AM,-1.3,-5.3,83,29.92,7.0,WNW,17.3,-,N/A,,Clear,290,2013-12-05 11:14:00
5:34 AM,-1.7,-5.6,83,29.92,5.0,WNW,17.3,-,N/A,,Clear,290,2013-12-05 11:34:00
5:54 AM,-1.8,-6.2,82,29.93,10.0,WNW,16.1,21.9,N/A,,Clear,290,2013-12-05 11:54:00
6:14 AM,-2.2,-6.7,81,29.93,7.0,WNW,17.3,23.0,N/A,,Clear,290,2013-12-05 12:14:00
6:33 AM,-2.4,-6.7,82,29.95,10.0,WNW,17.3,23.0,N/A,,Clear,290,2013-12-05 12:33:00
6:54 AM,-2.7,-6.9,82,29.95,10.0,WNW,17.3,23.0,N/A,,Clear,290,2013-12-05 12:54:00
7:14 AM,-2.7,-7.1,82,29.96,7.0,WNW,19.6,-,N/A,,Scattered Clouds,290,2013-12-05 13:14:00
7:34 AM,-3.3,-7.1,84,29.96,7.0,WNW,17.3,-,N/A,,Scattered Clouds,290,2013-12-05 13:34:00
7:54 AM,-3.5,-7.6,82,29.96,10.0,WNW,17.3,-,N/A,,Clear,290,2013-12-05 13:54:00
8:14 AM,-4.0,-8.1,82,29.98,10.0,WNW,18.4,26.5,N/A,,Clear,290,2013-12-05 14:14:00
8:34 AM,-4.0,-8.1,82,29.98,7.0,WNW,20.7,26.5,N/A,,Clear,290,2013-12-05 14:34:00
8:54 AM,-3.6,-8.0,82,29.99,10.0,WNW,19.6,24.2,N/A,,Clear,290,2013-12-05 14:54:00
9:14 AM,-3.3,-8.0,80,30.01,10.0,West,19.6,-,N/A,,Clear,280,2013-12-05 15:14:00
9:34 AM,-3.1,-8.0,80,30.03,10.0,West,20.7,25.3,N/A,,Clear,280,2013-12-05 15:34:00
9:54 AM,-2.4,-7.8,78,30.04,10.0,West,21.9,28.8,N/A,,Clear,280,2013-12-05 15:54:00
10:14 AM,-1.8,-7.1,78,30.05,7.0,WNW,20.7,28.8,N/A,,Clear,290,2013-12-05 16:14:00
10:34 AM,-1.5,-7.1,77,30.06,10.0,WNW,21.9,28.8,N/A,,Clear,290,2013-12-05 16:34:00
10:54 AM,-1.1,-6.9,77,30.07,10.0,WNW,21.9,28.8,N/A,,Clear,290,2013-12-05 16:54:00
11:14 AM,-0.8,-6.7,76,30.08,10.0,WNW,19.6,25.3,N/A,,Clear,290,2013-12-05 17:14:00
11:34 AM,-0.4,-6.7,75,30.09,10.0,WNW,15.0,26.5,N/A,,Clear,290,2013-12-05 17:34:00
11:54 AM,-0.4,-6.3,76,30.09,10.0,WNW,21.9,26.5,N/A,,Clear,290,2013-12-05 17:54:00
12:14 PM,-0.0,-6.2,75,30.10,10.0,WNW,20.7,26.5,N/A,,Clear,290,2013-12-05 18:14:00
12:34 PM,0.1,-5.8,76,30.11,7.0,WNW,21.9,29.9,N/A,,Clear,290,2013-12-05 18:34:00
12:54 PM,0.3,-6.0,75,30.11,10.0,WNW,19.6,24.2,N/A,,Clear,290,2013-12-05 18:54:00
1:14 PM,0.3,-6.2,74,30.11,10.0,WNW,16.1,23.0,N/A,,Clear,290,2013-12-05 19:14:00
1:35 PM,0.5,-6.0,74,30.11,10.0,West,20.7,-,N/A,,Clear,280,2013-12-05 19:35:00
1:54 PM,0.3,-6.0,75,30.11,10.0,WNW,17.3,24.2,N/A,,Clear,290,2013-12-05 19:54:00
2:14 PM,0.1,-6.2,75,30.11,10.0,WNW,16.1,-,N/A,,Clear,300,2013-12-05 20:14:00
2:35 PM,0.1,-6.0,75,30.12,10.0,WNW,13.8,-,N/A,,Clear,300,2013-12-05 20:35:00
2:54 PM,-0.0,-6.2,75,30.11,10.0,WNW,20.7,25.3,N/A,,Clear,300,2013-12-05 20:54:00
3:14 PM,-0.4,-6.5,75,30.13,10.0,WNW,16.1,-,N/A,,Clear,300,2013-12-05 21:14:00
3:34 PM,-0.8,-6.7,76,30.14,10.0,WNW,13.8,-,N/A,,Clear,290,2013-12-05 21:34:00
3:54 PM,-1.3,-7.1,77,30.15,10.0,WNW,9.2,-,N/A,,Clear,290,2013-12-05 21:54:00
4:14 PM,-2.0,-7.6,77,30.15,10.0,WNW,10.4,-,N/A,,Clear,300,2013-12-05 22:14:00
4:34 PM,-3.1,-8.3,78,30.15,10.0,WNW,10.4,-,N/A,,Clear,290,2013-12-05 22:34:00
4:54 PM,-4.2,-9.4,78,30.15,10.0,WNW,10.4,-,N/A,,Clear,300,2013-12-05 22:54:00
5:14 PM,-4.2,-9.4,78,30.15,10.0,WNW,12.7,-,N/A,,Clear,300,2013-12-05 23:14:00
5:34 PM,-4.9,-10.3,78,30.16,10.0,WNW,11.5,-,N/A,,Clear,290,2013-12-05 23:34:00
5:54 PM,-4.9,-10.1,78,30.17,10.0,WNW,11.5,-,N/A,,Clear,290,2013-12-05 23:54:00
6:14 PM,-4.9,-10.3,78,30.18,10.0,WNW,11.5,-,N/A,,Clear,300,2013-12-06 00:14:00
6:34 PM,-5.3,-10.7,77,30.19,10.0,WNW,6.9,-,N/A,,Clear,290,2013-12-06 00:34:00
6:54 PM,-5.8,-10.7,79,30.20,10.0,WNW,9.2,-,N/A,,Clear,290,2013-12-06 00:54:00
7:14 PM,-6.9,-11.9,79,30.21,10.0,WNW,4.6,-,N/A,,Clear,290,2013-12-06 01:14:00
7:34 PM,-6.7,-11.7,79,30.22,10.0,WNW,10.4,-,N/A,,Clear,290,2013-12-06 01:34:00
7:54 PM,-6.9,-12.1,78,30.23,10.0,West,12.7,-,N/A,,Clear,280,2013-12-06 01:54:00
8:14 PM,-7.1,-12.3,78,30.24,10.0,West,11.5,-,N/A,,Clear,280,2013-12-06 02:14:00
8:34 PM,-8.7,-13.4,80,30.25,10.0,West,10.4,-,N/A,,Clear,280,2013-12-06 02:34:00
8:54 PM,-8.1,-13.0,79,30.25,10.0,West,11.5,-,N/A,,Clear,280,2013-12-06 02:54:00
9:14 PM,-8.9,-13.9,79,30.26,10.0,West,12.7,-,N/A,,Clear,280,2013-12-06 03:14:00
9:34 PM,-9.6,-14.1,81,30.26,10.0,West,10.4,-,N/A,,Clear,280,2013-12-06 03:34:00
9:54 PM,-8.7,-13.0,81,30.26,10.0,West,10.4,-,N/A,,Clear,270,2013-12-06 03:54:00
10:14 PM,-9.4,-13.9,81,30.27,10.0,Calm,Calm,-,N/A,,Clear,0,2013-12-06 04:14:00
10:35 PM,-10.7,-14.8,82,30.28,10.0,Calm,Calm,-,N/A,,Clear,0,2013-12-06 04:35:00
10:54 PM,-9.4,-13.7,81,30.28,10.0,Calm,Calm,-,N/A,,Clear,0,2013-12-06 04:54:00
11:14 PM,-10.7,-15.2,80,30.29,10.0,Calm,Calm,-,N/A,,Clear,0,2013-12-06 05:14:00
11:33 PM,-10.3,-14.8,81,30.30,10.0,Calm,Calm,-,N/A,,Clear,0,2013-12-06 05:33:00
11:54 PM,-11.2,-15.3,82,30.31,10.0,Calm,Calm,-,N/A,,Clear,0,2013-12-06 05:54:00